User: anonymous   Login
Location: Plum
(40.5000°N, 79.7500°W)
Time: 16:53:03
(UTC-04:00)
Language:

MOZ.5/SAFIR/RUBIN 5/SL-8 - Orbit

View from above orbital plane
View from above orbital plane
View from above satellite
View from above satellite

Ground track
Ground track

The orbit data is extracted from the following two-line orbital elements,

1 28898U 05043G   17113.91563157 +.00000078 +00000-0 +25432-4 0  9992
2 28898 097.9183 266.0463 0019744 002.7083 357.4221 14.60174103235287
Epoch (UTC): 23 April 2017 21:58:30
Eccentricity: 0.0019744
inclination: 97.9183°
perigee height: 678 km
apogee height: 706 km
right ascension of ascending node: 266.0463°
argument of perigee: 2.7083°
revolutions per day: 14.60174103
mean anomaly at epoch: 357.4221°
orbit number at epoch: 23528

The dashed part of the orbit path shows where the satellite is in the earth's shadow,  

DLR